Location: Zagreb
(45.8000°N, 16.0000°E)
Time: 14:10:11
(UTC+02:00)

Tiros 1 despin weight - Pass Details

Date: 16 August 2022
Orbit: 590 x 639 km, 48.2° (Epoch: 23 September)

Event Time Altitude Azimuth Distance (km) Brightness Sun altitude
Rises 14:23:46 0° 278° (W) 2,853 ? 53.3°
Reaches altitude 10° 14:26:06 10° 282° (WNW) 1,942 ? 53.1°
Maximum altitude 14:30:31 64° 4° (N) 662 ? 52.6°
Drops below altitude 10° 14:34:54 10° 86° (E) 1,921 ? 52.2°
Sets 14:37:11 0° 90° (E) 2,819 ? 51.9°
